Indian Springs, NV

6:47 AM PDT on July 21, 2017 (GMT -0700)
Indian Springs Air Force Auxiliary

Weather History for KINS - January, 2013

Change the Weather History Date:

Saturday, January 19, 2013

  Actual Average (KDRA) Record (KDRA)
Temperature  
Mean Temperature 42 °F -  
Max Temperature 62 °F 55 °F 72 °F (1994)
Min Temperature 23 °F 33 °F 19 °F (2002)
Degree Days  
Heating Degree Days 22    
Moisture  
Dew Point 7 °F    
Average Humidity 34    
Maximum Humidity 50    
Minimum Humidity 9    
Precipitation  
Precipitation 0.00 in - - ()
Sea Level Pressure  
Sea Level Pressure 30.32 in    
Wind  
Wind Speed 3 mph (WSW)    
Max Wind Speed 7 mph    
Max Gust Speed -    
Visibility 10 miles    
Events      
Averages and records for this station are not official NWS values.
T = Trace of Precipitation, MM = Missing Value Source: NWS Daily Summary

Daily Weather History Graph

Daily Weather History Graph

Search for Another Location

Airport or City:

Trip Planner

Search our weather history database for the weather conditions in past years. The results will help you decide how hot, cold, wet, or windy it might be!

Date:

Astronomy

Jan. 19, 2013 Rise Set
Actual Time 6:52 AM PST 4:55 PM PST
Civil Twilight 6:24 AM PST 5:23 PM PST
Nautical Twilight 5:52 AM PST 5:54 PM PST
Astronomical Twilight 5:22 AM PST 6:25 PM PST
Moon 11:21 AM PST (1/19) 12:33 AM PST (1/19)
Length of Visible Light 10h 58m
Length of Day
10h 02m
First Quarter, 58% of the Moon is Illuminated
Jan 19
First Quarter
Jan 26
Full
Feb 3
Last Quarter
Feb 9
New
Feb 17
First Quarter

Hourly Weather History & Observations

Time (PST) Temp. Windchill Dew Point Humidity Pressure Visibility Wind Dir Wind Speed Gust Speed Precip Events Conditions
12:58 AM 26.4 °F 19.8 °F 6.3 °F 42% 30.31 in 10.0 mi WNW 5.8 mph - N/A   Clear
1:58 AM 24.8 °F 16.9 °F 7.3 °F 48% 30.33 in 10.0 mi WSW 6.9 mph - N/A   Clear
2:58 AM 24.8 °F 19.1 °F 5.5 °F 44% 30.32 in 10.0 mi SW 4.6 mph - N/A   Clear
3:58 AM 23.0 °F 18.4 °F 6.6 °F 50% 30.32 in 10.0 mi West 3.5 mph - N/A   Clear
4:58 AM 24.6 °F 20.3 °F 7.2 °F 48% 30.32 in 10.0 mi WSW 3.5 mph - N/A   Clear
5:58 AM 24.1 °F - 7.5 °F 49% 30.34 in 10.0 mi Variable 1.2 mph - N/A   Clear
7:58 AM 25.7 °F - 6.6 °F 44% 30.37 in 10.0 mi WNW 2.3 mph - N/A   Clear
8:58 AM 30.2 °F - 8.4 °F 40% 30.38 in 10.0 mi NNE 1.2 mph - N/A   Clear
9:58 AM 37.2 °F - 9.9 °F 32% 30.39 in 10.0 mi NNE 2.3 mph - N/A   Clear
10:58 AM 45.0 °F - 9.7 °F 24% 30.36 in 10.0 mi North 1.2 mph - N/A   Clear
11:58 AM 49.3 °F - 11.3 °F 22% 30.32 in 10.0 mi Calm Calm - N/A   Clear
2:55 PM 62.6 °F - 3.2 °F 9% 30.27 in 10.0 mi Calm Calm - N/A   Clear
3:55 PM 59.0 °F - 3.2 °F 11% 30.26 in 10.0 mi Calm Calm - N/A   Clear
4:54 PM 55.4 °F - 6.8 °F 14% 30.26 in 10.0 mi South 6.9 mph - N/A   Clear
7:40 PM 37.4 °F - 6.8 °F 28% 30.32 in 10.0 mi Calm Calm - N/A   Clear
7:59 PM 35.6 °F 32.8 °F 5.0 °F 28% 30.31 in 10.0 mi South 3.5 mph - N/A   Clear
8:55 PM 33.8 °F - 5.0 °F 30% 30.32 in 10.0 mi Calm Calm - N/A   Clear
9:54 PM 32.0 °F - 6.8 °F 35% 30.30 in 10.0 mi WSW 2.3 mph - N/A   Clear
9:55 PM 32.0 °F - 6.8 °F 35% 30.31 in 10.0 mi Calm Calm - N/A   Clear
10:54 PM 32.0 °F - 6.8 °F 35% 30.30 in 10.0 mi South 2.3 mph - N/A   Clear
10:55 PM 30.2 °F - 6.8 °F 37% 30.30 in 10.0 mi Calm Calm - N/A   Clear
11:58 PM 30.0 °F - 7.2 °F 38% 30.30 in 10.0 mi WSW 2.3 mph - N/A   Clear